星链-4782 (STARLINK-4782 )

导读

STARLINK-4782是美国太空探索技术公司(SpaceX)星链(Starlink)低轨宽带互联网星座的卫星之一,于2022年9月24日发射入轨。它采用平板设计,搭载Ku/Ka波段通信载荷与氪工质霍尔推进器,具备自主避撞能力,旨在为全球提供高速低延迟宽带互联网服务,寿命终结后会坠入大气层烧毁,降低空间垃圾影响。

基本信息
目录编号:
53933
目录名称:
STARLINK-4782
国际标识:
2022-119AZ
轨道中心:
EARTH
卫星名称:
星链-4782
卫星全名:
星链-4782 (STARLINK-4782 )
卫星状态:
在轨 (已飞行1442 天)
发射日期:
2022-09-24 UTC
国别 :
美国 (US)
星等 :
--
轨道信息
数据来源 国际轨道数据
星历时间: 2026-09-05T13:50:13+0800
14小时前
查看轨道信息
半长轴: 6917.866km
偏心率: 0.0001266
轨道倾角: 53.160°
近地点辐角 59.917°
升交点赤经 217.363°
平近点角 300.195°
近地点: 538.853km
远地点: 540.605km
周期: 95.437分钟
每日圈数: 15.08845
详细信息
固有亮度:
5
最大亮度:
2.5
卫星平台:
Starlink v1.5
覆盖范围:
全球
运营商:
太空探索技术公司
运营商所在国:
美国
制造商(研发单位):
太空探索技术公司
制造商所在国:
美国
使用方式:
暂无
卫星简介
星链(Starlink)计划是由太空探索技术公司(SpaceX)提出的一个巨型低轨卫星互联网星座项目,计划在2019年至2024年间在太空搭建由约1.2万颗卫星组成的“星链”网络,其中1584颗将部署在地球上空550千米处的近地轨道,并从2020年开始工作。该卫星仍在工作。
2D轨道图
3D轨道图
轨道高度分析图
轨道倾角分析图
轨道综合分析图
查看轨道综合分析图
交会数据列表
事件ID 空间交会对象 最接近时刻(TCA) 交会距离 交会风险概率(CRP) 交会风险指数(CRI) 操作
CDM_260906-085904-284705-393324
2026-09-06T
08:59:52+0000
0.684 km
远距离
9.063574E-5 中风险 0.74
CDM_260907-061401-850405-393323
2026-09-07T
06:14:04+0000
2.235 km
极远距离
2.072734E-6 低风险 0.41